Tracking 19170 objects as of 23-May-2018
HD Live streaming from Space Station
objects crossing your sky now

NOAA 16 DEB

Track NOAA 16 DEB now!
10-day predictions


NORAD ID: 41210
Int'l Code: 2000-055DP
Perigee: 852.4 km
Apogee: 890.5 km
Inclination: 98.9 °
Period: 102.2 minutes
Semi major axis: 7242 km
RCS: Unknown
Launch date: September 21, 2000
Source: United States (US)
Launch site: AIR FORCE WESTERN TEST RANGE (AFWTR)

Note: This is SATELLITE DEBRIS
aabbcc
Your satellite tracking list
Your tracking list is empty




NASA's NSSDC Master Catalog

Two Line Element Set (TLE):
1 41210U 00055DP  18142.14991602  .00000489  00000-0  30894-3 0  9994
2 41210  98.8799 212.2328 0026295 210.5924 149.3713 14.08561752126597
Source of the keplerian elements: AFSPC